| time (UTC) | temp C | wind direction | speed KPH | gust KPH | rain 1hr cm | rain 24hr cm | rain mn cm | humidity % | barometer mb |
| 20260510043059 | 18 | 103 | 0.0 | 0.0 | 0.00 | 0.00 | 0.00 | 58 | 1030.0 |
| 20260510041541 | 17 | 104 | 0.0 | 3.2 | 0.00 | 0.00 | 0.00 | 60 | 1030.2 |
| 20260510040039 | 17 | 109 | 0.0 | 4.8 | 0.00 | 0.00 | 0.00 | 60 | 1030.3 |
| 20260510034544 | 17 | 134 | 0.0 | 0.0 | 0.00 | 0.00 | 0.00 | 59 | 1030.4 |
| 20260510033041 | 17 | 175 | 0.0 | 8.0 | 0.00 | 0.00 | 0.00 | 57 | 1030.4 |
| 20260510031605 | 17 | 61 | 0.0 | 4.8 | 0.00 | 0.00 | 0.00 | 60 | 1030.4 |
| 20260510030037 | 17 | 227 | 0.0 | 8.0 | 0.00 | 0.00 | 0.00 | 61 | 1030.5 |
| 20260510024537 | 17 | 202 | 0.0 | 4.8 | 0.00 | 0.00 | 0.00 | 61 | 1030.7 |
| 20260510023044 | 17 | 283 | 1.6 | 4.8 | 0.00 | 0.00 | 0.00 | 62 | 1030.9 |
| 20260510021536 | 17 | 269 | 0.0 | 0.0 | 0.00 | 0.00 | 0.00 | 63 | 1031.1 |
| 20260510020030 | 16 | 84 | 0.0 | 0.0 | 0.00 | 0.00 | 0.00 | 64 | 1031.3 |
| 20260510014529 | 16 | 190 | 0.0 | 0.0 | 0.00 | 0.00 | 0.00 | 64 | 1031.6 |
| 20260510013028 | 16 | 171 | 0.0 | 0.0 | 0.00 | 0.00 | 0.00 | 65 | 1031.7 |
| 20260510011527 | 16 | 55 | 0.0 | 0.0 | 0.00 | 0.00 | 0.00 | 67 | 1031.8 |
| 20260510010029 | 16 | 55 | 0.0 | 0.0 | 0.00 | 0.00 | 0.00 | 67 | 1031.8 |
| 20260510004523 | 15 | 172 | 0.0 | 6.4 | 0.00 | 0.00 | 0.00 | 69 | 1031.8 |
| 20260510003023 | 15 | 211 | 1.6 | 6.4 | 0.00 | 0.00 | 0.00 | 70 | 1031.7 |
| 20260510001520 | 15 | 158 | 1.6 | 4.8 | 0.00 | 0.00 | 0.00 | 73 | 1031.7 |
| 20260510000017 | 15 | 204 | 0.0 | 0.0 | 0.00 | 0.00 | 0.00 | 75 | 1031.7 |
| 20260509234514 | 14 | 187 | 1.6 | 6.4 | 0.00 | 0.00 | 0.00 | 81 | 1031.7 |
| 20260509233012 | 14 | 233 | 0.0 | 1.6 | 0.00 | 0.00 | 0.00 | 85 | 1031.7 |
| 20260509231509 | 13 | 261 | 0.0 | 1.6 | 0.00 | 0.00 | 0.00 | 88 | 1031.7 |
| 20260509230009 | 13 | 310 | 0.0 | 0.0 | 0.00 | 0.00 | 0.00 | 89 | 1031.6 |
| 20260509224507 | 13 | 310 | 0.0 | 1.6 | 0.00 | 0.00 | 0.00 | 90 | 1031.6 |
| 20260509223006 | 13 | 310 | 0.0 | 0.0 | 0.00 | 0.00 | 0.00 | 90 | 1031.4 |
| 20260509221506 | 12 | 310 | 0.0 | 0.0 | 0.00 | 0.00 | 0.00 | 90 | 1031.1 |
| 20260509220005 | 12 | 310 | 0.0 | 3.2 | 0.00 | 0.00 | 0.00 | 90 | 1031.0 |
| 20260509214504 | 12 | 309 | 0.0 | 1.6 | 0.00 | 0.00 | 0.00 | 91 | 1030.9 |
| 20260509213002 | 12 | 314 | 0.0 | 1.6 | 0.00 | 0.00 | 0.00 | 91 | 1030.5 |
| 20260509211615 | 12 | 304 | 0.0 | 0.0 | 0.00 | 0.00 | 0.00 | 91 | 1030.3 |
| 20260509204604 | 12 | 275 | 0.0 | 0.0 | 0.00 | 0.00 | 0.00 | 91 | 1030.1 |
| 20260509203100 | 12 | 275 | 0.0 | 0.0 | 0.00 | 0.00 | 0.00 | 91 | 1030.0 |
| 20260509201556 | 12 | 275 | 0.0 | 0.0 | 0.00 | 0.00 | 0.00 | 90 | 1029.9 |
| 20260509200053 | 12 | 275 | 0.0 | 0.0 | 0.00 | 0.00 | 0.00 | 90 | 1029.8 |
| 20260509194553 | 13 | 275 | 0.0 | 0.0 | 0.00 | 0.00 | 0.00 | 90 | 1029.6 |
| 20260509193050 | 13 | 275 | 0.0 | 0.0 | 0.00 | 0.00 | 0.00 | 91 | 1029.5 |
| 20260509191549 | 13 | 275 | 0.0 | 0.0 | 0.00 | 0.00 | 0.00 | 91 | 1029.3 |
| 20260509190052 | 13 | 275 | 0.0 | 0.0 | 0.00 | 0.00 | 0.00 | 91 | 1029.2 |
| 20260509184548 | 13 | 275 | 0.0 | 0.0 | 0.00 | 0.00 | 0.00 | 91 | 1029.1 |
| 20260509183048 | 13 | 275 | 0.0 | 0.0 | 0.00 | 0.00 | 0.00 | 91 | 1028.9 |
| 20260509181603 | 13 | 275 | 0.0 | 3.2 | 0.00 | 0.00 | 0.00 | 91 | 1028.8 |
| 20260509180046 | 13 | 240 | 0.0 | 0.0 | 0.00 | 0.00 | 0.00 | 91 | 1028.8 |
| 20260509174551 | 13 | 240 | 0.0 | 0.0 | 0.00 | 0.00 | 0.00 | 91 | 1028.8 |
| 20260509173047 | 13 | 240 | 0.0 | 0.0 | 0.00 | 0.00 | 0.00 | 91 | 1028.7 |
| 20260509171548 | 13 | 240 | 0.0 | 0.0 | 0.00 | 0.00 | 0.00 | 91 | 1028.6 |
| 20260509170044 | 13 | 240 | 0.0 | 0.0 | 0.00 | 0.00 | 0.00 | 91 | 1028.8 |
| 20260509164543 | 13 | 240 | 0.0 | 0.0 | 0.00 | 0.00 | 0.00 | 91 | 1028.9 |
| 20260509163054 | 13 | 240 | 0.0 | 0.0 | 0.00 | 0.00 | 0.00 | 91 | 1028.9 |
| 20260509161542 | 13 | 241 | 0.0 | 0.0 | 0.00 | 0.00 | 0.00 | 91 | 1028.9 |
| 20260509160040 | 13 | 240 | 0.0 | 0.0 | 0.00 | 0.00 | 0.00 | 90 | 1029.0 |
| 20260509154540 | 13 | 241 | 0.0 | 0.0 | 0.00 | 0.00 | 0.00 | 90 | 1029.0 |
| 20260509153037 | 13 | 241 | 0.0 | 1.6 | 0.00 | 0.00 | 0.00 | 90 | 1029.1 |
| 20260509151538 | 13 | 203 | 0.0 | 0.0 | 0.00 | 0.00 | 0.00 | 89 | 1029.1 |
| 20260509150038 | 13 | 203 | 0.0 | 0.0 | 0.00 | 0.00 | 0.00 | 89 | 1029.1 |
| 20260509144537 | 13 | 203 | 0.0 | 0.0 | 0.00 | 0.00 | 0.00 | 89 | 1029.1 |
| 20260509143036 | 13 | 203 | 0.0 | 0.0 | 0.00 | 0.00 | 0.00 | 89 | 1029.1 |
| 20260509141536 | 13 | 203 | 1.6 | 6.4 | 0.00 | 0.00 | 0.00 | 88 | 1029.1 |
| 20260509140035 | 13 | 203 | 0.0 | 1.6 | 0.00 | 0.00 | 0.00 | 88 | 1029.0 |
| 20260509134538 | 13 | 200 | 0.0 | 0.0 | 0.00 | 0.00 | 0.00 | 87 | 1029.1 |
| 20260509133033 | 13 | 200 | 0.0 | 0.0 | 0.00 | 0.00 | 0.00 | 87 | 1029.1 |
| 20260509131535 | 13 | 200 | 0.0 | 0.0 | 0.00 | 0.00 | 0.00 | 87 | 1029.1 |
| 20260509130033 | 13 | 200 | 0.0 | 0.0 | 0.00 | 0.00 | 0.00 | 87 | 1029.1 |
| 20260509124533 | 13 | 200 | 0.0 | 0.0 | 0.00 | 0.00 | 0.00 | 87 | 1029.0 |
| 20260509123033 | 13 | 200 | 0.0 | 0.0 | 0.00 | 0.00 | 0.00 | 87 | 1029.2 |
| 20260509121538 | 13 | 200 | 0.0 | 0.0 | 0.00 | 0.00 | 0.00 | 86 | 1029.2 |
| 20260509120035 | 13 | 200 | 0.0 | 0.0 | 0.00 | 0.00 | 0.00 | 86 | 1029.2 |
| 20260509114534 | 13 | 200 | 0.0 | 0.0 | 0.00 | 0.00 | 0.00 | 86 | 1029.2 |
| 20260509113030 | 13 | 200 | 0.0 | 0.0 | 0.00 | 0.00 | 0.00 | 86 | 1028.9 |
| 20260509111529 | 13 | 200 | 0.0 | 0.0 | 0.00 | 0.00 | 0.00 | 86 | 1028.8 |
| 20260509110029 | 13 | 200 | 1.6 | 6.4 | 0.00 | 0.00 | 0.00 | 87 | 1028.7 |
| 20260509104534 | 13 | 190 | 0.0 | 0.0 | 0.00 | 0.00 | 0.00 | 87 | 1028.7 |
| 20260509103029 | 13 | 189 | 0.0 | 0.0 | 0.00 | 0.00 | 0.00 | 87 | 1028.6 |
| 20260509101529 | 13 | 168 | 0.0 | 0.0 | 0.00 | 0.00 | 0.00 | 87 | 1028.6 |
| 20260509100027 | 13 | 142 | 0.0 | 0.0 | 0.00 | 0.00 | 0.00 | 86 | 1028.6 |
| 20260509094526 | 14 | 142 | 0.0 | 0.0 | 0.00 | 0.00 | 0.00 | 86 | 1028.5 |
| 20260509093025 | 14 | 142 | 0.0 | 0.0 | 0.00 | 0.00 | 0.00 | 86 | 1028.5 |
| 20260509091532 | 15 | 142 | 0.0 | 0.0 | 0.00 | 0.00 | 0.00 | 85 | 1028.3 |
| 20260509090024 | 15 | 142 | 0.0 | 0.0 | 0.00 | 0.00 | 0.00 | 86 | 1028.3 |
| 20260509084528 | 15 | 142 | 0.0 | 0.0 | 0.00 | 0.00 | 0.00 | 85 | 1028.1 |
| 20260509083024 | 15 | 142 | 0.0 | 0.0 | 0.00 | 0.00 | 0.00 | 85 | 1028.0 |
| 20260509081523 | 15 | 142 | 0.0 | 0.0 | 0.00 | 0.00 | 0.00 | 85 | 1027.8 |
| 20260509080030 | 15 | 142 | 0.0 | 0.0 | 0.00 | 0.00 | 0.00 | 85 | 1027.6 |
| 20260509074525 | 15 | 149 | 0.0 | 0.0 | 0.00 | 0.00 | 0.00 | 84 | 1027.5 |
| 20260509073038 | 15 | 182 | 0.0 | 6.4 | 0.00 | 0.00 | 0.00 | 83 | 1027.3 |
| 20260509071522 | 16 | 130 | 0.0 | 4.8 | 0.00 | 0.00 | 0.00 | 82 | 1027.2 |
| 20260509070023 | 16 | 165 | 0.0 | 6.4 | 0.00 | 0.00 | 0.00 | 81 | 1027.2 |
| 20260509064523 | 16 | 189 | 0.0 | 4.8 | 0.00 | 0.00 | 0.00 | 80 | 1027.1 |
| 20260509063028 | 16 | 263 | 1.6 | 6.4 | 0.00 | 0.00 | 0.00 | 79 | 1027.1 |
| 20260509061524 | 16 | 261 | 0.0 | 4.8 | 0.00 | 0.00 | 0.00 | 78 | 1027.0 |
| 20260509060022 | 16 | 273 | 0.0 | 6.4 | 0.00 | 0.00 | 0.00 | 77 | 1026.9 |
| 20260509054529 | 17 | 279 | 1.6 | 8.0 | 0.00 | 0.00 | 0.00 | 76 | 1026.9 |
| 20260509053020 | 17 | 246 | 1.6 | 6.4 | 0.00 | 0.00 | 0.00 | 76 | 1026.8 |
| 20260509051521 | 17 | 237 | 3.2 | 9.7 | 0.00 | 0.00 | 0.00 | 75 | 1026.8 |
| 20260509050032 | 17 | 211 | 3.2 | 11.3 | 0.00 | 0.00 | 0.00 | 74 | 1026.8 |
| 20260509044520 | 18 | 225 | 1.6 | 8.0 | 0.00 | 0.00 | 0.00 | 73 | 1026.9 |